Zurück zum Katalog

MIKROGLOB-1

AktivAmateurfunkSSO
NORAD 69895·PAYLOAD·🇨🇦 Canada

Gestartet Jul 7, 2026 von Vandenberg Space Force Base

Loading…

Nächste Überflüge (nächste 24 Stunden)

TLE

AktuellSource: Space-Track

Epoche: Sep 14, 2026, 04:04 UTC

1 69895U 26156AC  26257.16996760  .00000600  00000-0  65250-4 0  9991
2 69895  97.7436 156.4356 0004786 279.7835  80.2843 14.91646014 10261

Verfolge MIKROGLOB-1 in Echtzeit mit AllMySat

Download on the App Store